Regional Weather Roundup
Issued by NWS Jackson, KY

Home | Current Version | Previous Version | Text Only | Print | Product List | Glossary On
Versions: 1 2 3 4 5 6 7 8 9 10 11 12 13 14 15 16 17 18 19 20 21 22 23 24 25 26 27
000
ASUS43 KJKL 191110
RWRJKL

EAST KENTUCKY HOURLY WEATHER ROUNDUP
NATIONAL WEATHER SERVICE JACKSON KY
700 AM EDT THU OCT 19 2017

NOTE: "FAIR" INDICATES FEW OR NO CLOUDS BELOW 12,000 FEET WITH
NO SIGNIFICANT WEATHER AND/OR OBSTRUCTIONS TO VISIBILITY.

* THESE REPORTS ARE NOT UNDER NWS QUALITY CONTROL AND MAY NOT
  REPORT WEATHER SUCH AS PRECIPITATION AND FOG.

KYZ079-080-083-085-087-088-110-112-115-119-120-191200
...EASTERN KENTUCKY...

CITY           SKY/WX    TMP DP  RH WIND       PRES   REMARKS
JACKSON        CLEAR     48  43  82 CALM      30.29R
LONDON         CLEAR     40  38  93 CALM      30.30R
SOMERSET*      CLEAR     41  41 100 CALM      30.31R
MONTICELLO*    CLEAR     37  36  96 W9        30.32R WCI  30
WILLIAMSBURG*  SUNNY     37  37 100 CALM      30.32R
MIDDLESBORO*   FOG       39  39 100 CALM      30.33R VSB 1/4
HARLAN APT*    CLOUDY    43  41  93 CALM      30.32R VSB 1/4
PIKE CO APT*     N/A     48  44  87 S6        30.30R
BIG SANDY APT* SUNNY     46  46  99 CALM      30.30R
MOREHEAD APT*  SUNNY     48  46  93 VRB3      30.29R
$$

KYZ035-036-041-042-044-050-067-078-099-191200
...CENTRAL KENTUCKY...

CITY           SKY/WX    TMP DP  RH WIND       PRES   REMARKS
MT STERLING*   CLEAR     46  43  87 CALM      30.30R
FLEMING/MASON* CLEAR     47  44  90 S8        30.27S
DANVILLE*      CLEAR     46  43  87 CALM      30.29R
LEXINGTON      CLEAR     47  42  83 S8        30.26R
FRANKFORT      CLEAR     43  40  89 SE3       30.25R
LOUISVILLE     CLEAR     49  44  83 SE6       30.24S
LEBANON*         N/A     50  45  81 S6        30.28R
GLASGOW*       CLEAR    N/A N/A N/A CALM      30.28R
BOWLING GREEN  CLEAR     41  40  96 CALM      30.28R FOG
$$

KYZ091>093-OHZ055-061-077-WVZ005-015-034-035-042-191200
...SOUTHERN OHIO/WEST VIRGINIA...

CITY           SKY/WX    TMP DP  RH WIND       PRES   REMARKS
COVINGTON      CLEAR     47  45  93 S8        30.22R
COLUMBUS       PTCLDY    49  43  80 S3        30.20S
DAYTON         CLEAR     49  45  86 SW9       30.19S
WILMINGTON     CLEAR     47  43  86 S3        30.22R
HUNTINGTON     CLEAR     44  41  89 S3        30.27R
CHARLESTON     PTCLDY    40  38  93 CALM      30.28R
PINEVILLE*     CLEAR     38  37  97 MISG      30.36R
BECKLEY        CLEAR     43  36  76 CALM      30.31R
BLUEFIELD      CLEAR     44  36  73 CALM      30.32R
LOGAN CO APT*    N/A     48  43  81 CALM      30.30R
$$

VAZ002-007-008-TNZ017-027-036-066-071-191200
...SOUTHWEST VIRGINIA/EAST TENNESSEE...

CITY           SKY/WX    TMP DP  RH WIND       PRES   REMARKS
WISE*          CLEAR     45  41  87 SW6       30.32R
JONESVILLE*      N/A     37  37 100 CALM      30.35R
ABINGDON*      CLEAR     46  41  83 CALM      30.32R
BRISTOL        CLEAR     39  39 100 CALM      30.32R
MORRISTOWN*    SUNNY     45  43  93 CALM      30.31R
SEVIERVILLE*   SUNNY     41  41 100 CALM      30.32R
KNOXVILLE      CLOUDY    46  46 100 CALM      30.30R
LAFOLLETTE*    FOG       46  46 100 CALM      30.35R VSB 1/4
OAK RIDGE      CLOUDY    43  43 100 CALM      30.33R
CROSSVILLE     CLOUDY    41  40  96 CALM      30.31R
NASHVILLE      PTCLDY    47  43  86 CALM      30.27R
$$

...KEY TO REMARKS...
VSB - VISIBILITY IN MILES
WCI - WIND CHILL INDEX
HX  - HEAT INDEX

$$




USA.gov is the U.S. government's official web portal to all federal, state and local government web resources and services.